TimeCST,TemperatureF,Dew PointF,Humidity,Sea Level PressureIn,VisibilityMPH,Wind Direction,Wind SpeedMPH,Gust SpeedMPH,PrecipitationIn,Events,Conditions,WindDirDegrees,DateUTC
12:53 AM,33.1,30.0,89,30.38,10.0,Calm,Calm,-,N/A,,Clear,0,2012-12-22 06:53:00
1:53 AM,32.0,30.0,92,30.38,10.0,Calm,Calm,-,N/A,,Clear,0,2012-12-22 07:53:00
2:53 AM,32.0,30.0,92,30.38,10.0,Calm,Calm,-,N/A,,Clear,0,2012-12-22 08:53:00
3:53 AM,32.0,30.0,92,30.38,10.0,Calm,Calm,-,N/A,,Clear,0,2012-12-22 09:53:00
4:53 AM,30.9,28.9,92,30.38,10.0,Calm,Calm,-,N/A,,Clear,0,2012-12-22 10:53:00
5:53 AM,30.9,28.9,92,30.39,10.0,Calm,Calm,-,N/A,,Clear,0,2012-12-22 11:53:00
6:53 AM,30.0,28.0,92,30.40,10.0,Calm,Calm,-,N/A,,Clear,0,2012-12-22 12:53:00
7:53 AM,33.1,30.0,89,30.41,10.0,East,3.5,-,N/A,,Clear,80,2012-12-22 13:53:00
8:53 AM,42.1,32.0,67,30.43,10.0,Calm,Calm,-,N/A,,Clear,0,2012-12-22 14:53:00
9:53 AM,51.1,33.1,50,30.43,10.0,Calm,Calm,-,N/A,,Clear,0,2012-12-22 15:53:00
10:53 AM,55.9,30.9,39,30.41,10.0,Calm,Calm,-,N/A,,Clear,0,2012-12-22 16:53:00
11:53 AM,59.0,26.1,28,30.37,10.0,Calm,Calm,-,N/A,,Clear,0,2012-12-22 17:53:00
12:53 PM,62.1,19.9,20,30.33,10.0,South,4.6,-,N/A,,Clear,170,2012-12-22 18:53:00
1:53 PM,62.1,23.0,22,30.30,10.0,South,3.5,-,N/A,,Clear,190,2012-12-22 19:53:00
2:53 PM,64.0,21.0,19,30.29,10.0,South,5.8,-,N/A,,Clear,170,2012-12-22 20:53:00
3:53 PM,62.1,21.9,21,30.29,10.0,South,5.8,-,N/A,,Clear,180,2012-12-22 21:53:00
4:53 PM,57.9,25.0,28,30.27,10.0,SSE,4.6,-,N/A,,Clear,160,2012-12-22 22:53:00
5:53 PM,55.0,26.1,33,30.27,10.0,SSE,4.6,-,N/A,,Clear,160,2012-12-22 23:53:00
6:53 PM,51.1,28.9,43,30.27,10.0,Calm,Calm,-,N/A,,Clear,0,2012-12-23 00:53:00
7:53 PM,50.0,28.9,44,30.28,8.0,Calm,Calm,-,N/A,,Clear,0,2012-12-23 01:53:00
8:53 PM,48.0,32.0,54,30.28,7.0,SSE,3.5,-,N/A,,Clear,150,2012-12-23 02:53:00
9:53 PM,46.0,34.0,63,30.26,7.0,ESE,4.6,-,N/A,,Clear,110,2012-12-23 03:53:00
10:53 PM,45.0,36.0,71,30.25,6.0,Calm,Calm,-,N/A,,Haze,0,2012-12-23 04:53:00
11:53 PM,45.0,37.0,74,30.23,7.0,SE,3.5,-,N/A,,Clear,130,2012-12-23 05:53:00